"Datum/tijd (MEZT)";"golfhoogte";"deininghoogte";"rws verwachting golfhoogte";"rws verwachting deininghoogte"
2024-04-13 13:00;57;8;58;8
2024-04-13 13:10;55;8;57;8
2024-04-13 13:20;56;8;56;8
2024-04-13 13:30;57;8;56;8
2024-04-13 13:40;56;8;57;8
2024-04-13 13:50;57;9;58;8
2024-04-13 14:00;60;9;58;9
2024-04-13 14:10;60;8;57;9
2024-04-13 14:20;57;9;58;9
2024-04-13 14:30;53;9;58;9
2024-04-13 14:40;58;9;58;9
2024-04-13 14:50;61;9;58;10
2024-04-13 15:00;59;10;60;10
2024-04-13 15:10;60;11;61;10
2024-04-13 15:20;62;9;61;10
2024-04-13 15:30;62;10;62;10
2024-04-13 15:40;62;10;62;10
2024-04-13 15:50;62;10;63;10
2024-04-13 16:00;62;10;64;9
2024-04-13 16:10;66;9;65;9
2024-04-13 16:20;69;8;67;9
2024-04-13 16:30;68;9;69;9
2024-04-13 16:40;68;10;72;10
2024-04-13 16:50;75;11;75;11
2024-04-13 17:00;78;11;79;11
2024-04-13 17:10;84;12;84;12
2024-04-13 17:20;90;13;89;12
2024-04-13 17:30;93;12;94;13
2024-04-13 17:40;100;13;98;13
2024-04-13 17:50;103;14;104;13
2024-04-13 18:00;104;12;111;13
2024-04-13 18:10;120;13;114;13
2024-04-13 18:20;126;13;118;13
2024-04-13 18:30;118;13;126;13
2024-04-13 18:40;123;13;132;14
2024-04-13 18:50;144;14;136;14
2024-04-13 19:00;150;15;141;15
2024-04-13 19:10;146;16;144;15
2024-04-13 19:20;143;15;142;14
2024-04-13 19:30;137;14;139;14
2024-04-13 19:40;135;12;136;13
2024-04-13 19:50;133;12;136;13
2024-04-13 20:00;133;13;138;12
2024-04-13 20:10;140;12;139;13
2024-04-13 20:20;147;13;141;13
2024-04-13 20:30;143;13;142;13
2024-04-13 20:40;140;13;140;14
2024-04-13 20:50;139;15;138;14
2024-04-13 21:00;129;16;136;14
2024-04-13 21:10;;;135;14
2024-04-13 21:20;;;136;14
2024-04-13 21:30;;;137;13
2024-04-13 21:40;;;136;13
2024-04-13 21:50;;;136;13
2024-04-13 22:00;;;136;13
2024-04-13 22:10;;;133;13
2024-04-13 22:20;;;131;13
2024-04-13 22:30;;;131;13
2024-04-13 22:40;;;131;13
2024-04-13 22:50;;;133;13
2024-04-13 23:00;;;138;14
2024-04-13 23:10;;;141;14
2024-04-13 23:20;;;142;14
2024-04-13 23:30;;;145;14
2024-04-13 23:40;;;144;15
2024-04-13 23:50;;;141;16
2024-04-14 00:00;;;140;16
2024-04-14 00:10;;;139;17
2024-04-14 00:20;;;137;18
2024-04-14 00:30;;;135;18
2024-04-14 00:40;;;132;17
2024-04-14 00:50;;;131;17
2024-04-14 01:00;;;130;17
2024-04-14 01:10;;;128;17
2024-04-14 01:20;;;126;17
2024-04-14 01:30;;;124;17
2024-04-14 01:40;;;121;18
2024-04-14 01:50;;;117;17
2024-04-14 02:00;;;114;17
2024-04-14 02:10;;;112;16
2024-04-14 02:20;;;111;16
2024-04-14 02:30;;;111;16
2024-04-14 02:40;;;110;16
2024-04-14 02:50;;;111;16
2024-04-14 03:00;;;112;16
2024-04-14 03:10;;;111;15
2024-04-14 03:20;;;111;15
2024-04-14 03:30;;;112;15
2024-04-14 03:40;;;111;15
2024-04-14 03:50;;;109;16
2024-04-14 04:00;;;109;17
2024-04-14 04:10;;;109;18
2024-04-14 04:20;;;108;17
2024-04-14 04:30;;;107;15
2024-04-14 04:40;108;9;107;14
2024-04-14 04:50;105;10;105;13
2024-04-14 05:00;103;12;102;11
2024-04-14 05:10;98;12;101;11
2024-04-14 05:20;98;11;101;12
2024-04-14 05:30;103;12;101;12
2024-04-14 05:40;104;12;102;11
2024-04-14 05:50;101;11;102;12
2024-04-14 06:00;103;11;102;12
2024-04-14 06:10;101;13;102;12
2024-04-14 06:20;101;13;103;13
2024-04-14 06:30;106;13;102;13
2024-04-14 06:40;102;13;101;13
2024-04-14 06:50;100;12;102;13
2024-04-14 07:00;97;13;102;12
2024-04-14 07:10;105;12;102;12
2024-04-14 07:20;107;12;103;13
2024-04-14 07:30;103;13;105;13
2024-04-14 07:40;103;14;105;13
2024-04-14 07:50;107;14;105;13
2024-04-14 08:00;107;12;106;13
2024-04-14 08:10;107;12;106;12
2024-04-14 08:20;107;12;106;12
2024-04-14 08:30;104;12;106;12
2024-04-14 08:40;106;12;105;12
2024-04-14 08:50;105;12;105;12
2024-04-14 09:00;104;11;106;11
2024-04-14 09:10;107;11;105;11
2024-04-14 09:20;106;11;105;11
2024-04-14 09:30;105;10;105;11
2024-04-14 09:40;103;10;104;10
2024-04-14 09:50;105;11;104;10
2024-04-14 10:00;103;9;104;10
2024-04-14 10:10;105;10;104;9
2024-04-14 10:20;105;9;105;9
2024-04-14 10:30;102;8;105;9
2024-04-14 10:40;108;10;103;9
2024-04-14 10:50;103;9;102;9
2024-04-14 11:00;96;9;102;10
2024-04-14 11:10;99;10;100;10
2024-04-14 11:20;102;10;98;10
2024-04-14 11:30;100;10;98;10
2024-04-14 11:40;94;10;97;10
2024-04-14 11:50;93;10;95;10
2024-04-14 12:00;95;10;93;10
2024-04-14 12:10;94;10;93;10
2024-04-14 12:20;91;9;93;10
2024-04-14 12:30;91;10;93;10
2024-04-14 12:40;95;11;92;10
2024-04-14 12:50;93;10;91;10
2024-04-14 13:00;88;11;90;11
2024-04-14 13:10;86;10;90;11
2024-04-14 13:20;90;11;88;11
2024-04-14 13:30;91;12;87;11
2024-04-14 13:40;86;12;87;11
2024-04-14 13:50;84;11;88;11
2024-04-14 14:00;83;11;88;11
2024-04-14 14:10;94;11;88;11
2024-04-14 14:20;95;11;89;11
2024-04-14 14:30;85;11;91;11
2024-04-14 14:40;90;11;91;11
2024-04-14 14:50;92;11;90;11
2024-04-14 15:00;91;10;91;11
2024-04-14 15:10;92;10;92;11
2024-04-14 15:20;92;12;92;11
2024-04-14 15:30;94;13;92;12
2024-04-14 15:40;93;12;92;12
2024-04-14 15:50;90;11;92;12
2024-04-14 16:00;89;11;94;11
2024-04-14 16:10;93;11;96;11
2024-04-14 16:20;105;12;98;11
2024-04-14 16:30;102;11;102;11
2024-04-14 16:40;102;10;104;10
2024-04-14 16:50;106;9;103;10
2024-04-14 17:00;104;10;104;10
2024-04-14 17:10;103;11;104;10
2024-04-14 17:20;103;11;104;11
2024-04-14 17:30;104;11;106;11
2024-04-14 17:40;107;12;108;12
2024-04-14 17:50;112;12;109;12
2024-04-14 18:00;113;12;108;12
2024-04-14 18:10;107;12;110;12
2024-04-14 18:20;102;12;112;12
2024-04-14 18:30;116;13;112;13
2024-04-14 18:40;122;13;113;13
2024-04-14 18:50;115;13;114;13
2024-04-14 19:00;109;13;114;13
2024-04-14 19:10;109;12;114;13
2024-04-14 19:20;114;14;115;14
2024-04-14 19:30;121;15;118;14
2024-04-14 19:40;123;14;120;14
2024-04-14 19:50;121;14;122;15
2024-04-14 20:00;121;15;119;15
2024-04-14 20:10;123;16;117;15
2024-04-14 20:20;108;15;116;14
2024-04-14 20:30;112;13;113;14
2024-04-14 20:40;115;12;111;13
2024-04-14 20:50;109;13;111;13
2024-04-14 21:00;110;14;111;13
2024-04-14 21:10;111;14;109;13
2024-04-14 21:20;110;12;109;13
2024-04-14 21:30;105;12;110;13
2024-04-14 21:40;108;14;110;12
2024-04-14 21:50;115;13;108;12
2024-04-14 22:00;110;11;108;12
2024-04-14 22:10;103;11;107;11
2024-04-14 22:20;104;12;105;11
2024-04-14 22:30;104;10;104;11
2024-04-14 22:40;102;12;105;11
2024-04-14 22:50;106;12;106;11
2024-04-14 23:00;110;11;104;13
2024-04-14 23:10;106;12;104;13
2024-04-14 23:20;;;103;14
2024-04-14 23:30;;;99;15
2024-04-14 23:40;;;97;15
2024-04-14 23:50;;;95;15
2024-04-15 00:00;;;92;15
2024-04-15 00:10;;;90;14
2024-04-15 00:20;;;89;14
2024-04-15 00:30;;;88;14
2024-04-15 00:40;;;87;14
2024-04-15 00:50;;;86;14
2024-04-15 01:00;;;84;14
2024-04-15 01:10;;;82;14
2024-04-15 01:20;;;81;15
2024-04-15 01:30;;;81;15
2024-04-15 01:40;;;81;16
2024-04-15 01:50;;;80;17
2024-04-15 02:00;;;79;16
2024-04-15 02:10;;;79;16
2024-04-15 02:20;;;79;15
2024-04-15 02:30;;;78;15
2024-04-15 02:40;;;79;16
2024-04-15 02:50;;;79;16
2024-04-15 03:00;;;79;16
2024-04-15 03:10;;;81;17
2024-04-15 03:20;;;82;17
2024-04-15 03:30;;;84;16
2024-04-15 03:40;;;86;15
2024-04-15 03:50;;;88;15
2024-04-15 04:00;;;91;15
2024-04-15 04:10;;;94;16
2024-04-15 04:20;;;99;17
2024-04-15 04:30;;;102;18
2024-04-15 04:40;;;105;18
2024-04-15 04:50;;;109;19
2024-04-15 05:00;;;112;19
2024-04-15 05:10;;;114;18
2024-04-15 05:20;;;116;19
2024-04-15 05:30;;;118;20
2024-04-15 05:40;;;119;20
2024-04-15 05:50;;;122;20
2024-04-15 06:00;;;125;21
2024-04-15 06:10;;;128;22
2024-04-15 06:20;;;133;21
2024-04-15 06:30;;;137;21
2024-04-15 06:40;;;137;23
2024-04-15 06:50;;;137;23
2024-04-15 07:00;;;139;23
2024-04-15 07:10;;;135;22
2024-04-15 07:20;;;132;21
2024-04-15 07:30;122;15;131;20
2024-04-15 07:40;125;18;130;19
2024-04-15 07:50;129;18;130;17
2024-04-15 08:00;134;18;133;17
2024-04-15 08:10;138;17;135;16
2024-04-15 08:20;138;14;138;16
2024-04-15 08:30;138;15;139;16
2024-04-15 08:40;141;17;142;17
2024-04-15 08:50;141;19;148;17
2024-04-15 09:00;153;18;153;18
2024-04-15 09:10;167;16;157;18
2024-04-15 09:20;161;18;161;18
2024-04-15 09:30;161;19;163;17
2024-04-15 09:40;164;17;165;17
2024-04-15 09:50;163;16;168;17
2024-04-15 10:00;174;16;171;16
2024-04-15 10:10;180;16;175;16
2024-04-15 10:20;175;14;181;16
2024-04-15 10:30;182;17;184;17
2024-04-15 10:40;192;19;188;17
2024-04-15 10:50;193;17;194;17
2024-04-15 11:00;200;16;197;17
2024-04-15 11:10;205;17;200;17
2024-04-15 11:20;197;16;206;17
2024-04-15 11:30;204;17;212;17
2024-04-15 11:40;223;18;220;17
2024-04-15 11:50;230;17;229;17
2024-04-15 12:00;247;15;235;18
2024-04-15 12:10;243;19;239;18
2024-04-15 12:20;233;20;240;19
2024-04-15 12:30;244;19;237;20
2024-04-15 12:40;233;21;242;20
2024-04-15 12:50;232;21;250;21
2024-04-15 13:00;269;21;257;22
2024-04-15 13:10;270;23;273;23
2024-04-15 13:20;281;25;288;24
2024-04-15 13:30;314;25;295;26
2024-04-15 13:40;307;26;297;25
2024-04-15 13:50;301;29;300;26
2024-04-15 14:00;281;19;297;28
2024-04-15 14:10;295;31;292;31
2024-04-15 14:20;299;36;282;32
2024-04-15 14:30;283;38;277;35
2024-04-15 14:40;253;35;271;35
2024-04-15 14:50;257;33;261;35
2024-04-15 15:00;261;34;252;34
2024-04-15 15:10;249;34;246;34
2024-04-15 15:20;238;36;239;34
2024-04-15 15:30;225;35;232;33
2024-04-15 15:40;224;33;228;32
2024-04-15 15:50;225;29;228;32
2024-04-15 16:00;227;29;233;31
2024-04-15 16:10;239;33;238;30
2024-04-15 16:20;250;31;240;30
2024-04-15 16:30;247;29;243;31
2024-04-15 16:40;239;30;243;29
2024-04-15 16:50;238;30;242;29
2024-04-15 17:00;240;27;246;29
2024-04-15 17:10;248;28;249;28
2024-04-15 17:20;266;30;251;27
2024-04-15 17:30;253;25;256;26
2024-04-15 17:40;249;23;264;25
2024-04-15 17:50;264;23;269;25
2024-04-15 18:00;287;26;275;25
2024-04-15 18:10;294;26;280;26
2024-04-15 18:20;280;26;281;26
2024-04-15 18:30;274;27;277;26
2024-04-15 18:40;269;25;275;27
2024-04-15 18:50;268;26;280;29
2024-04-15 19:00;285;30;284;31
2024-04-15 19:10;302;35;292;33
2024-04-15 19:20;298;37;298;34
2024-04-15 19:30;308;35;299;35
2024-04-15 19:40;297;35;297;35
2024-04-15 19:50;288;34;295;35
2024-04-15 20:00;293;35;290;36
2024-04-15 20:10;288;37;285;36
2024-04-15 20:20;285;39;282;36
2024-04-15 20:30;270;36;280;36
2024-04-15 20:40;272;31;281;36
2024-04-15 20:50;284;35;281;36
2024-04-15 21:00;292;38;283;35
2024-04-15 21:10;287;40;283;36
2024-04-15 21:20;279;33;277;36
2024-04-15 21:30;272;35;271;34
2024-04-15 21:40;253;33;271;33
2024-04-15 21:50;262;29;272;32
2024-04-15 22:00;290;33;269;32
2024-04-15 22:10;283;32;271;31
2024-04-15 22:20;258;31;273;31
2024-04-15 22:30;261;31;269;30
2024-04-15 22:40;271;30;268;30
2024-04-15 22:50;273;28;278;31
2024-04-15 23:00;276;31;291;32
2024-04-15 23:10;309;33;302;35
2024-04-15 23:20;326;39;311;38
2024-04-15 23:30;324;43;319;41
2024-04-15 23:40;318;44;321;42
2024-04-15 23:50;317;45;322;41
2024-04-16 00:00;322;40;324;40
2024-04-16 00:10;327;35;332;39
2024-04-16 00:20;337;38;342;40
2024-04-16 00:30;357;38;342;42
2024-04-16 00:40;365;50;342;41
2024-04-16 00:50;324;47;342;42
2024-04-16 01:00;330;47;343;42
2024-04-16 01:10;361;53;343;42
2024-04-16 01:20;;;343;42
2024-04-16 01:30;;;343;42
2024-04-16 01:40;;;342;40
2024-04-16 01:50;349;59;342;40
2024-04-16 02:00;328;74;342;40
2024-04-16 02:10;330;81;341;40
2024-04-16 02:20;;;341;40
2024-04-16 02:30;322;48;341;39
2024-04-16 02:40;315;48;341;39
2024-04-16 02:50;;;341;39
2024-04-16 03:00;312;47;341;39
2024-04-16 03:10;316;55;341;39
2024-04-16 03:20;317;62;341;38
2024-04-16 03:30;;;342;37
2024-04-16 03:40;;;342;37
2024-04-16 03:50;;;342;37
2024-04-16 04:00;;;342;37
2024-04-16 04:10;;;342;37
2024-04-16 04:20;294;41;342;36
2024-04-16 04:30;311;41;341;36
2024-04-16 04:40;340;61;340;37
2024-04-16 04:50;329;61;339;37
2024-04-16 05:00;317;50;339;37
2024-04-16 05:10;342;60;338;36
2024-04-16 05:20;381;68;337;37
2024-04-16 05:30;;;336;37
2024-04-16 05:40;;;336;37
2024-04-16 05:50;;;335;38
2024-04-16 06:00;;;334;38
2024-04-16 06:10;;;334;37
2024-04-16 06:20;;;333;37
2024-04-16 06:30;404;77;332;38
2024-04-16 06:40;378;77;332;38
2024-04-16 06:50;375;71;331;38
2024-04-16 07:00;364;71;330;38
2024-04-16 07:10;;;330;39
2024-04-16 07:20;358;98;329;39
2024-04-16 07:30;;;328;40
2024-04-16 07:40;;;328;41
2024-04-16 07:50;;;327;41
2024-04-16 08:00;;;327;42
2024-04-16 08:10;;;326;43
2024-04-16 08:20;;;325;44
2024-04-16 08:30;;;323;44
2024-04-16 08:40;;;321;45
2024-04-16 08:50;;;318;46
2024-04-16 09:00;;;316;47
2024-04-16 09:10;;;314;48
2024-04-16 09:20;;;312;48
2024-04-16 09:30;;;310;49
2024-04-16 09:40;;;308;50
2024-04-16 09:50;;;305;50
2024-04-16 10:00;;;303;51
2024-04-16 10:10;;;301;51
2024-04-16 10:20;;;299;51
2024-04-16 10:30;;;297;50
2024-04-16 10:40;;;295;50
2024-04-16 10:50;;;293;50
2024-04-16 11:00;;;291;50
2024-04-16 11:10;;;290;50
2024-04-16 11:20;;;288;49
2024-04-16 11:30;;;287;48
2024-04-16 11:40;;;286;48
2024-04-16 11:50;;;284;48
2024-04-16 12:00;;;283;47
2024-04-16 12:10;;;280;46
2024-04-16 12:20;;;277;46
2024-04-16 12:30;;;274;45
2024-04-16 12:40;;;271;44
2024-04-16 12:50;;;268;44
2024-04-16 13:00;;;265;43
2024-04-16 13:10;;;262;42
2024-04-16 13:20;;;258;41
2024-04-16 13:30;;;254;40
2024-04-16 13:40;;;251;40
2024-04-16 13:50;;;248;39
2024-04-16 14:00;;;244;38
2024-04-16 14:10;;;241;37
2024-04-16 14:20;;;238;36
2024-04-16 14:30;;;234;36
2024-04-16 14:40;;;231;35
2024-04-16 14:50;;;228;34
2024-04-16 15:00;;;225;33
2024-04-16 15:10;;;223;32
2024-04-16 15:20;;;220;32
2024-04-16 15:30;;;218;32
2024-04-16 15:40;;;216;31
2024-04-16 15:50;;;213;30
2024-04-16 16:00;;;211;30
2024-04-16 16:10;;;209;30
2024-04-16 16:20;;;207;29
2024-04-16 16:30;;;204;28
2024-04-16 16:40;;;202;28
2024-04-16 16:50;;;200;28
2024-04-16 17:00;;;198;27
2024-04-16 17:10;;;196;27
2024-04-16 17:20;;;194;26
2024-04-16 17:30;;;192;26
2024-04-16 17:40;;;191;26
2024-04-16 17:50;;;189;25
2024-04-16 18:00;;;187;25
2024-04-16 18:10;;;186;25
2024-04-16 18:20;;;184;25
2024-04-16 18:30;;;182;24
2024-04-16 18:40;;;181;24
2024-04-16 18:50;;;180;24
2024-04-16 19:00;;;178;24
2024-04-16 19:10;;;177;24
2024-04-16 19:20;;;176;24
2024-04-16 19:30;;;175;24
2024-04-16 19:40;;;174;23
2024-04-16 19:50;;;173;23
2024-04-16 20:00;;;172;23
2024-04-16 20:10;;;171;23
2024-04-16 20:20;;;170;23
2024-04-16 20:30;;;170;22
2024-04-16 20:40;;;169;22
2024-04-16 20:50;;;168;22
2024-04-16 21:00;;;167;22
2024-04-16 21:10;;;166;22
2024-04-16 21:20;;;166;22
2024-04-16 21:30;;;165;22
2024-04-16 21:40;;;164;22
2024-04-16 21:50;;;164;22
2024-04-16 22:00;;;163;22
2024-04-16 22:10;;;162;22
2024-04-16 22:20;;;162;22
2024-04-16 22:30;;;162;22
2024-04-16 22:40;;;161;22
2024-04-16 22:50;;;160;22
2024-04-16 23:00;;;160;22
2024-04-16 23:10;;;159;22
2024-04-16 23:20;;;159;22
2024-04-16 23:30;;;158;22
2024-04-16 23:40;;;157;22
2024-04-16 23:50;;;157;22
2024-04-17 00:00;;;156;22
2024-04-17 00:10;;;155;22
2024-04-17 00:20;;;154;22
2024-04-17 00:30;;;154;22
2024-04-17 00:40;;;153;22
2024-04-17 00:50;;;152;22
2024-04-17 01:00;;;151;22
2024-04-17 01:10;;;150;22
2024-04-17 01:20;;;150;22
2024-04-17 01:30;;;149;22
2024-04-17 01:40;;;148;21
2024-04-17 01:50;;;148;21
2024-04-17 02:00;;;147;21
2024-04-17 02:10;;;147;21
2024-04-17 02:20;;;147;21
2024-04-17 02:30;;;146;20
2024-04-17 02:40;;;146;20
2024-04-17 02:50;;;146;20
2024-04-17 03:00;;;146;20
2024-04-17 03:10;;;146;20
2024-04-17 03:20;;;147;20
2024-04-17 03:30;;;148;20
2024-04-17 03:40;;;148;20
2024-04-17 03:50;;;148;20
2024-04-17 04:00;;;149;20
2024-04-17 04:10;;;149;20
2024-04-17 04:20;;;149;20
2024-04-17 04:30;;;148;20
2024-04-17 04:40;;;148;19
2024-04-17 04:50;;;148;19
2024-04-17 05:00;;;148;19
2024-04-17 05:10;;;148;19
2024-04-17 05:20;;;147;19
2024-04-17 05:30;;;146;18
2024-04-17 05:40;;;146;18
2024-04-17 05:50;;;146;18
2024-04-17 06:00;;;145;18
2024-04-17 06:10;;;145;18
2024-04-17 06:20;;;144;18
2024-04-17 06:30;;;144;18
2024-04-17 06:40;;;144;17
2024-04-17 06:50;;;143;17
2024-04-17 07:00;;;143;17
2024-04-17 07:10;;;142;17
2024-04-17 07:20;;;142;17
2024-04-17 07:30;;;141;16
2024-04-17 07:40;;;140;16
2024-04-17 07:50;;;140;16
2024-04-17 08:00;;;139;16
2024-04-17 08:10;;;138;16
2024-04-17 08:20;;;137;16
2024-04-17 08:30;;;136;16
2024-04-17 08:40;;;136;15
2024-04-17 08:50;;;135;15
2024-04-17 09:00;;;134;15
2024-04-17 09:10;;;133;15
2024-04-17 09:20;;;133;15
2024-04-17 09:30;;;132;14
2024-04-17 09:40;;;131;14
2024-04-17 09:50;;;131;14
2024-04-17 10:00;;;130;14
2024-04-17 10:10;;;130;14
2024-04-17 10:20;;;130;14
2024-04-17 10:30;;;130;14
2024-04-17 10:40;;;129;13
2024-04-17 10:50;;;129;13
2024-04-17 11:00;;;129;13
2024-04-17 11:10;;;128;13
2024-04-17 11:20;;;127;13
2024-04-17 11:30;;;126;12
2024-04-17 11:40;;;125;12
2024-04-17 11:50;;;124;12
2024-04-17 12:00;;;123;12
2024-04-17 12:10;;;122;12
2024-04-17 12:20;;;121;12
2024-04-17 12:30;;;120;12
2024-04-17 12:40;;;120;12
2024-04-17 12:50;;;119;12
2024-04-17 13:00;;;118;12
2024-04-17 13:10;;;117;12
2024-04-17 13:20;;;117;12
2024-04-17 13:30;;;116;12
2024-04-17 13:40;;;115;11
2024-04-17 13:50;;;115;11
2024-04-17 14:00;;;114;11
2024-04-17 14:10;;;114;11
2024-04-17 14:20;;;113;11
2024-04-17 14:30;;;112;11
2024-04-17 14:40;;;112;11
2024-04-17 14:50;;;112;11
2024-04-17 15:00;;;111;11
2024-04-17 15:10;;;111;11
2024-04-17 15:20;;;111;11
2024-04-17 15:30;;;110;11
2024-04-17 15:40;;;110;11
2024-04-17 15:50;;;110;11
2024-04-17 16:00;;;110;11
2024-04-17 16:10;;;110;11
2024-04-17 16:20;;;109;11
2024-04-17 16:30;;;109;11
2024-04-17 16:40;;;109;11
2024-04-17 16:50;;;108;11
2024-04-17 17:00;;;108;11
2024-04-17 17:10;;;108;11
2024-04-17 17:20;;;107;11
2024-04-17 17:30;;;106;11
2024-04-17 17:40;;;106;11
2024-04-17 17:50;;;106;11
2024-04-17 18:00;;;105;11
2024-04-17 18:10;;;105;11
2024-04-17 18:20;;;105;11
2024-04-17 18:30;;;104;12
2024-04-17 18:40;;;104;12
2024-04-17 18:50;;;104;12
2024-04-17 19:00;;;104;12
2024-04-17 19:10;;;104;12
2024-04-17 19:20;;;103;12
2024-04-17 19:30;;;103;12
2024-04-17 19:40;;;103;13
2024-04-17 19:50;;;102;13
2024-04-17 20:00;;;102;13
2024-04-17 20:10;;;102;13
2024-04-17 20:20;;;102;13
2024-04-17 20:30;;;102;14
2024-04-17 20:40;;;102;14
2024-04-17 20:50;;;102;14
2024-04-17 21:00;;;102;14
2024-04-17 21:10;;;102;14
2024-04-17 21:20;;;102;14
2024-04-17 21:30;;;102;15
2024-04-17 21:40;;;102;15
2024-04-17 21:50;;;102;15
2024-04-17 22:00;;;102;15
2024-04-17 22:10;;;102;15
2024-04-17 22:20;;;102;15
2024-04-17 22:30;;;102;16
2024-04-17 22:40;;;102;16
2024-04-17 22:50;;;102;16
2024-04-17 23:00;;;102;16
2024-04-17 23:10;;;102;15
2024-04-17 23:20;;;102;15
2024-04-17 23:30;;;103;15
2024-04-17 23:40;;;103;15
2024-04-17 23:50;;;104;16
2024-04-18 00:00;;;104;16
2024-04-18 00:10;;;104;16
2024-04-18 00:20;;;105;16
2024-04-18 00:30;;;105;16
2024-04-18 00:40;;;106;16
2024-04-18 00:50;;;106;16
2024-04-18 01:00;;;107;16
2024-04-18 01:10;;;107;16
2024-04-18 01:20;;;107;16
2024-04-18 01:30;;;108;16
2024-04-18 01:40;;;108;17
2024-04-18 01:50;;;109;17
2024-04-18 02:00;;;110;17
2024-04-18 02:10;;;111;17
2024-04-18 02:20;;;112;17
2024-04-18 02:30;;;112;17
2024-04-18 02:40;;;113;16
2024-04-18 02:50;;;114;16
2024-04-18 03:00;;;115;16
2024-04-18 03:10;;;116;16
2024-04-18 03:20;;;116;16
2024-04-18 03:30;;;117;16
2024-04-18 03:40;;;118;16
2024-04-18 03:50;;;119;16
2024-04-18 04:00;;;120;16
2024-04-18 04:10;;;120;16
2024-04-18 04:20;;;121;16
2024-04-18 04:30;;;122;16
2024-04-18 04:40;;;123;16
2024-04-18 04:50;;;124;16
2024-04-18 05:00;;;124;15
2024-04-18 05:10;;;125;14
2024-04-18 05:20;;;125;14
2024-04-18 05:30;;;125;14
2024-04-18 05:40;;;125;14
2024-04-18 05:50;;;125;14
2024-04-18 06:00;;;125;14
2024-04-18 06:10;;;125;14
2024-04-18 06:20;;;125;13
2024-04-18 06:30;;;125;13
2024-04-18 06:40;;;125;13
2024-04-18 06:50;;;125;13
2024-04-18 07:00;;;125;13
2024-04-18 07:10;;;125;13
2024-04-18 07:20;;;125;13
2024-04-18 07:30;;;125;13
2024-04-18 07:40;;;125;12
2024-04-18 07:50;;;125;12
2024-04-18 08:00;;;125;12
2024-04-18 08:10;;;125;12
2024-04-18 08:20;;;125;12
2024-04-18 08:30;;;125;12
2024-04-18 08:40;;;125;12
2024-04-18 08:50;;;124;12
2024-04-18 09:00;;;124;11
2024-04-18 09:10;;;124;11
2024-04-18 09:20;;;124;11
2024-04-18 09:30;;;124;11
2024-04-18 09:40;;;124;11
2024-04-18 09:50;;;123;11
2024-04-18 10:00;;;123;11
2024-04-18 10:10;;;123;11
2024-04-18 10:20;;;123;10
2024-04-18 10:30;;;123;10
2024-04-18 10:40;;;122;10
2024-04-18 10:50;;;122;10
2024-04-18 11:00;;;122;10
2024-04-18 11:10;;;121;10
2024-04-18 11:20;;;121;10
2024-04-18 11:30;;;120;10
2024-04-18 11:40;;;119;10
2024-04-18 11:50;;;119;10
2024-04-18 12:00;;;118;9
2024-04-18 12:10;;;117;9
2024-04-18 12:20;;;117;9
2024-04-18 12:30;;;116;9
2024-04-18 12:40;;;116;9
2024-04-18 12:50;;;115;9
2024-04-18 13:00;;;114;9
  </body>
</html>
